| time (UTC) | temp F | wind direction | speed MPH | gust MPH | rain 1hr in | rain 24hr in | rain mn in | humidity % | barometer mb |
| 20260905230016 | 88 | 338 | 1.0 | 3.0 | 0.00 | 0.00 | 0.00 | 58 | |
| 20260905225016 | 88 | 225 | 1.0 | 5.0 | 0.00 | 0.00 | 0.00 | 56 | |
| 20260905224015 | 88 | 0.0 | 2.0 | 0.00 | 0.00 | 0.00 | 56 | ||
| 20260905223056 | 88 | 270 | 1.0 | 4.0 | 0.00 | 0.00 | 0.00 | 58 | |
| 20260905222018 | 88 | 90 | 1.0 | 5.0 | 0.00 | 0.00 | 0.00 | 59 | |
| 20260905221017 | 87 | 0 | 1.0 | 3.0 | 0.00 | 0.00 | 0.00 | 61 | |
| 20260905220017 | 87 | 248 | 1.0 | 3.0 | 0.00 | 0.00 | 0.00 | 61 | |
| 20260905215017 | 88 | 0.0 | 2.0 | 0.00 | 0.00 | 0.00 | 60 | ||
| 20260905214017 | 88 | 203 | 1.0 | 4.0 | 0.00 | 0.00 | 0.00 | 58 | |
| 20260905213017 | 88 | 68 | 1.0 | 4.0 | 0.00 | 0.00 | 0.00 | 60 | |
| 20260905212037 | 88 | 90 | 2.0 | 4.0 | 0.00 | 0.00 | 0.00 | 59 | |
| 20260905211017 | 88 | 203 | 2.0 | 7.0 | 0.00 | 0.00 | 0.00 | 59 | |
| 20260905210018 | 88 | 135 | 2.0 | 8.0 | 0.00 | 0.00 | 0.00 | 59 | |
| 20260905205017 | 87 | 135 | 2.0 | 7.0 | 0.00 | 0.00 | 0.00 | 60 | |
| 20260905204018 | 87 | 113 | 2.0 | 4.0 | 0.00 | 0.00 | 0.00 | 62 | |
| 20260905203017 | 86 | 135 | 2.0 | 7.0 | 0.00 | 0.00 | 0.00 | 63 | |
| 20260905202017 | 86 | 180 | 1.0 | 4.0 | 0.00 | 0.00 | 0.00 | 65 | |
| 20260905201038 | 86 | 158 | 2.0 | 5.0 | 0.00 | 0.00 | 0.00 | 65 | |
| 20260905200017 | 85 | 315 | 2.0 | 6.0 | 0.00 | 0.00 | 0.00 | 68 | |
| 20260905195017 | 85 | 270 | 1.0 | 6.0 | 0.00 | 0.00 | 0.00 | 69 | |
| 20260905194017 | 84 | 135 | 1.0 | 3.0 | 0.00 | 0.00 | 0.00 | 68 | |
| 20260905193016 | 84 | 135 | 2.0 | 3.0 | 0.00 | 0.00 | 0.00 | 67 | |
| 20260905192017 | 84 | 180 | 1.0 | 4.0 | 0.00 | 0.00 | 0.00 | 67 | |
| 20260905191016 | 84 | 180 | 1.0 | 2.0 | 0.00 | 0.00 | 0.00 | 67 | |
| 20260905190017 | 84 | 180 | 1.0 | 2.0 | 0.00 | 0.00 | 0.00 | 67 | |
| 20260905185037 | 84 | 180 | 1.0 | 5.0 | 0.00 | 0.00 | 0.00 | 67 | |
| 20260905184016 | 84 | 158 | 1.0 | 3.0 | 0.00 | 0.00 | 0.00 | 67 | |
| 20260905183017 | 83 | 315 | 1.0 | 4.0 | 0.00 | 0.00 | 0.00 | 70 | |
| 20260905182016 | 82 | 225 | 1.0 | 2.0 | 0.00 | 0.00 | 0.00 | 71 | |
| 20260905181016 | 82 | 113 | 1.0 | 3.0 | 0.00 | 0.00 | 0.00 | 71 | |
| 20260905180037 | 82 | 90 | 1.0 | 3.0 | 0.00 | 0.00 | 0.00 | 74 | |
| 20260905175017 | 81 | 90 | 1.0 | 2.0 | 0.00 | 0.00 | 0.00 | 75 | |
| 20260905174016 | 80 | 225 | 2.0 | 4.0 | 0.00 | 0.00 | 0.00 | 75 | |
| 20260905173036 | 79 | 293 | 1.0 | 3.0 | 0.00 | 0.00 | 0.00 | 80 | |
| 20260905172037 | 77 | 338 | 1.0 | 4.0 | 0.00 | 0.00 | 0.00 | 81 | |
| 20260905171016 | 77 | 315 | 1.0 | 5.0 | 0.00 | 0.00 | 0.00 | 83 | |
| 20260905170017 | 76 | 158 | 1.0 | 4.0 | 0.00 | 0.00 | 0.00 | 83 | |
| 20260905165016 | 76 | 0.0 | 2.0 | 0.00 | 0.00 | 0.00 | 85 | ||
| 20260905164056 | 75 | 113 | 1.0 | 2.0 | 0.00 | 0.00 | 0.00 | 86 | |
| 20260905163037 | 75 | 113 | 1.0 | 4.0 | 0.00 | 0.00 | 0.00 | 87 | |
| 20260905162036 | 74 | 68 | 1.0 | 2.0 | 0.00 | 0.00 | 0.00 | 88 | |
| 20260905161015 | 74 | 90 | 1.0 | 2.0 | 0.00 | 0.00 | 0.00 | 89 | |
| 20260905160015 | 73 | 0.0 | 2.0 | 0.00 | 0.00 | 0.00 | 89 | ||
| 20260905155118 | 73 | 0.0 | 3.0 | 0.00 | 0.00 | 0.00 | 90 | ||
| 20260905154015 | 72 | 0.0 | 2.0 | 0.00 | 0.00 | 0.00 | 90 | ||
| 20260905153016 | 72 | 0.0 | 3.0 | 0.00 | 0.00 | 0.00 | 91 | ||
| 20260905152016 | 72 | 225 | 1.0 | 3.0 | 0.00 | 0.00 | 0.00 | 91 | |
| 20260905151016 | 72 | 0.0 | 1.0 | 0.00 | 0.00 | 0.00 | 92 | ||
| 20260905150015 | 72 | 90 | 1.0 | 3.0 | 0.00 | 0.00 | 0.00 | 92 | |
| 20260905145015 | 71 | 0.0 | 0.0 | 0.00 | 0.00 | 0.00 | 92 | ||
| 20260905144036 | 71 | 0.0 | 0.0 | 0.00 | 0.00 | 0.00 | 93 | ||
| 20260905143015 | 71 | 0.0 | 0.0 | 0.00 | 0.00 | 0.00 | 93 | ||
| 20260905142017 | 71 | 203 | 1.0 | 3.0 | 0.00 | 0.00 | 0.00 | 93 | |
| 20260905141038 | 70 | 90 | 1.0 | 3.0 | 0.00 | 0.00 | 0.00 | 93 | |
| 20260905140017 | 70 | 0.0 | 2.0 | 0.00 | 0.00 | 0.00 | 93 | ||
| 20260905135018 | 70 | 0.0 | 0.0 | 0.00 | 0.00 | 0.00 | 93 | ||
| 20260905134017 | 70 | 0.0 | 0.0 | 0.00 | 0.00 | 0.00 | 93 | ||
| 20260905133017 | 70 | 0.0 | 0.0 | 0.00 | 0.00 | 0.00 | 93 | ||
| 20260905132038 | 70 | 0.0 | 0.0 | 0.00 | 0.00 | 0.00 | 93 | ||
| 20260905131017 | 70 | 0.0 | 2.0 | 0.00 | 0.00 | 0.00 | 93 | ||
| 20260905130017 | 70 | 135 | 1.0 | 2.0 | 0.00 | 0.00 | 0.00 | 92 | |
| 20260905125017 | 70 | 0.0 | 2.0 | 0.00 | 0.00 | 0.00 | 93 | ||
| 20260905124017 | 70 | 0.0 | 0.0 | 0.00 | 0.00 | 0.00 | 92 | ||
| 20260905123017 | 69 | 0.0 | 0.0 | 0.00 | 0.00 | 0.00 | 92 | ||
| 20260905122017 | 69 | 0.0 | 0.0 | 0.00 | 0.00 | 0.00 | 92 | ||
| 20260905121018 | 69 | 0.0 | 0.0 | 0.00 | 0.00 | 0.00 | 92 | ||
| 20260905120037 | 69 | 0.0 | 0.0 | 0.00 | 0.00 | 0.00 | 92 | ||
| 20260905115017 | 69 | 0.0 | 0.0 | 0.00 | 0.00 | 0.00 | 91 | ||
| 20260905114058 | 69 | 0.0 | 0.0 | 0.00 | 0.00 | 0.00 | 91 | ||
| 20260905113017 | 69 | 0.0 | 0.0 | 0.00 | 0.00 | 0.00 | 91 | ||
| 20260905112017 | 69 | 0.0 | 0.0 | 0.00 | 0.00 | 0.00 | 91 | ||
| 20260905111037 | 69 | 0.0 | 0.0 | 0.00 | 0.00 | 0.00 | 91 | ||
| 20260905110016 | 69 | 0.0 | 0.0 | 0.00 | 0.00 | 0.00 | 90 | ||
| 20260905105017 | 69 | 0.0 | 2.0 | 0.00 | 0.00 | 0.00 | 90 | ||
| 20260905104016 | 69 | 90 | 1.0 | 3.0 | 0.00 | 0.00 | 0.00 | 90 | |
| 20260905103017 | 69 | 248 | 1.0 | 3.0 | 0.00 | 0.00 | 0.00 | 90 | |
| 20260905102016 | 69 | 113 | 1.0 | 3.0 | 0.00 | 0.00 | 0.00 | 90 | |
| 20260905101016 | 69 | 0.0 | 0.0 | 0.00 | 0.00 | 0.00 | 90 | ||
| 20260905100016 | 70 | 0.0 | 2.0 | 0.00 | 0.00 | 0.00 | 90 | ||
| 20260905095037 | 70 | 113 | 1.0 | 2.0 | 0.00 | 0.00 | 0.00 | 90 | |
| 20260905094016 | 70 | 0.0 | 0.0 | 0.00 | 0.00 | 0.00 | 90 | ||
| 20260905093036 | 69 | 0.0 | 0.0 | 0.00 | 0.00 | 0.00 | 90 | ||
| 20260905092017 | 69 | 113 | 1.0 | 2.0 | 0.00 | 0.00 | 0.00 | 90 | |
| 20260905091016 | 69 | 0.0 | 0.0 | 0.00 | 0.00 | 0.00 | 90 | ||
| 20260905090017 | 69 | 113 | 1.0 | 3.0 | 0.00 | 0.00 | 0.00 | 90 | |
| 20260905085016 | 69 | 0.0 | 0.0 | 0.00 | 0.00 | 0.00 | 90 | ||
| 20260905084016 | 69 | 0.0 | 1.0 | 0.00 | 0.00 | 0.00 | 90 | ||
| 20260905083037 | 69 | 0.0 | 2.0 | 0.00 | 0.00 | 0.00 | 89 | ||
| 20260905082016 | 69 | 0.0 | 1.0 | 0.00 | 0.00 | 0.00 | 89 | ||
| 20260905081016 | 69 | 113 | 1.0 | 3.0 | 0.00 | 0.00 | 0.00 | 89 | |
| 20260905080016 | 69 | 113 | 1.0 | 4.0 | 0.00 | 0.00 | 0.00 | 88 | |
| 20260905075016 | 69 | 0.0 | 0.0 | 0.00 | 0.00 | 0.00 | 88 | ||
| 20260905074016 | 69 | 0.0 | 1.0 | 0.00 | 0.00 | 0.00 | 87 | ||
| 20260905073015 | 69 | 113 | 1.0 | 3.0 | 0.00 | 0.00 | 0.00 | 87 | |
| 20260905072016 | 69 | 0.0 | 1.0 | 0.00 | 0.00 | 0.00 | 87 | ||
| 20260905071056 | 70 | 0.0 | 1.0 | 0.00 | 0.00 | 0.00 | 87 | ||
| 20260905070016 | 70 | 0.0 | 1.0 | 0.00 | 0.00 | 0.00 | 86 | ||
| 20260905065015 | 70 | 0.0 | 2.0 | 0.00 | 0.00 | 0.00 | 86 | ||
| 20260905064015 | 70 | 0.0 | 1.0 | 0.00 | 0.00 | 0.00 | 86 | ||
| 20260905063035 | 71 | 113 | 1.0 | 3.0 | 0.00 | 0.00 | 0.00 | 85 | |
| 20260905062016 | 71 | 0.0 | 2.0 | 0.00 | 0.00 | 0.00 | 84 | ||
| 20260905061017 | 71 | 113 | 1.0 | 3.0 | 0.00 | 0.00 | 0.00 | 83 | |
| 20260905060058 | 72 | 0.0 | 0.0 | 0.00 | 0.00 | 0.00 | 83 | ||
| 20260905055017 | 72 | 0.0 | 2.0 | 0.00 | 0.00 | 0.00 | 82 | ||
| 20260905054018 | 72 | 0.0 | 0.0 | 0.00 | 0.00 | 0.00 | 81 | ||
| 20260905053017 | 73 | 0.0 | 0.0 | 0.00 | 0.00 | 0.00 | 81 | ||
| 20260905052018 | 73 | 0.0 | 1.0 | 0.00 | 0.00 | 0.00 | 81 | ||
| 20260905051017 | 73 | 0.0 | 0.0 | 0.00 | 0.00 | 0.00 | 80 | ||
| 20260905050016 | 73 | 0.0 | 2.0 | 0.00 | 0.00 | 0.00 | 80 | ||
| 20260905045016 | 74 | 0.0 | 2.0 | 0.00 | 0.00 | 0.00 | 79 | ||
| 20260905044016 | 74 | 0.0 | 1.0 | 0.00 | 0.00 | 0.00 | 79 | ||
| 20260905043017 | 74 | 0.0 | 0.0 | 0.00 | 0.00 | 0.00 | 78 | ||
| 20260905042016 | 75 | 0.0 | 0.0 | 0.00 | 0.00 | 0.00 | 78 | ||
| 20260905041017 | 75 | 0.0 | 1.0 | 0.00 | 0.00 | 0.00 | 77 | ||
| 20260905040017 | 76 | 0.0 | 1.0 | 0.00 | 0.00 | 0.00 | 76 | ||
| 20260905035037 | 76 | 0.0 | 0.0 | 0.00 | 0.00 | 0.00 | 76 | ||
| 20260905034016 | 76 | 0.0 | 2.0 | 0.00 | 0.00 | 0.00 | 76 | ||
| 20260905033017 | 77 | 113 | 1.0 | 3.0 | 0.00 | 0.00 | 0.00 | 75 | |
| 20260905032016 | 77 | 113 | 2.0 | 4.0 | 0.00 | 0.00 | 0.00 | 74 | |
| 20260905031037 | 77 | 113 | 1.0 | 3.0 | 0.00 | 0.00 | 0.00 | 73 | |
| 20260905030016 | 78 | 113 | 1.0 | 4.0 | 0.00 | 0.00 | 0.00 | 73 | |
| 20260905025016 | 78 | 113 | 2.0 | 6.0 | 0.00 | 0.00 | 0.00 | 72 | |
| 20260905024016 | 79 | 113 | 1.0 | 3.0 | 0.00 | 0.00 | 0.00 | 72 | |
| 20260905023016 | 79 | 113 | 1.0 | 4.0 | 0.00 | 0.00 | 0.00 | 71 | |
| 20260905022036 | 80 | 113 | 2.0 | 4.0 | 0.00 | 0.00 | 0.00 | 71 | |
| 20260905021016 | 80 | 113 | 2.0 | 3.0 | 0.00 | 0.00 | 0.00 | 71 | |
| 20260905020016 | 80 | 113 | 1.0 | 4.0 | 0.00 | 0.00 | 0.00 | 70 | |
| 20260905015016 | 81 | 113 | 1.0 | 3.0 | 0.00 | 0.00 | 0.00 | 70 | |
| 20260905014016 | 81 | 0.0 | 1.0 | 0.00 | 0.00 | 0.00 | 69 | ||
| 20260905013015 | 82 | 0.0 | 2.0 | 0.00 | 0.00 | 0.00 | 69 | ||
| 20260905012016 | 82 | 0.0 | 1.0 | 0.00 | 0.00 | 0.00 | 68 | ||
| 20260905011036 | 83 | 0.0 | 0.0 | 0.00 | 0.00 | 0.00 | 67 | ||
| 20260905010037 | 83 | 113 | 1.0 | 2.0 | 0.00 | 0.00 | 0.00 | 67 | |
| 20260905005016 | 84 | 113 | 1.0 | 3.0 | 0.00 | 0.00 | 0.00 | 66 | |
| 20260905004015 | 84 | 113 | 1.0 | 3.0 | 0.00 | 0.00 | 0.00 | 65 | |
| 20260905003036 | 85 | 113 | 1.0 | 3.0 | 0.00 | 0.00 | 0.00 | 64 | |
| 20260905002056 | 85 | 113 | 1.0 | 2.0 | 0.00 | 0.00 | 0.00 | 63 | |
| 20260905001016 | 86 | 113 | 1.0 | 2.0 | 0.00 | 0.00 | 0.00 | 62 | |
| 20260905000017 | 86 | 113 | 1.0 | 4.0 | 0.00 | 0.00 | 0.00 | 62 | |
| 20260904235037 | 87 | 113 | 2.0 | 3.0 | 0.00 | 0.00 | 0.00 | 61 | |
| 20260904234017 | 87 | 113 | 1.0 | 3.0 | 0.00 | 0.00 | 0.00 | 61 | |
| 20260904233017 | 88 | 135 | 2.0 | 5.0 | 0.00 | 0.00 | 0.00 | 61 | |
| 20260904232018 | 89 | 135 | 1.0 | 3.0 | 0.00 | 0.00 | 0.00 | 60 | |
| 20260904231058 | 90 | 45 | 2.0 | 4.0 | 0.00 | 0.00 | 0.00 | 59 |